Frenchville, ME

1:17 PM EDT on July 24, 2017 (GMT -0400)
Northern Aroostook Regional

Weather History for KFVE - August, 2014

Change the Weather History Date:

Saturday, August 16, 2014

  Actual Average Record
Temperature  
Mean Temperature 58 °F 63 °F  
Max Temperature 63 °F 72 °F 87 °F (2002)
Min Temperature 53 °F 53 °F 48 °F (1999)
Degree Days  
Heating Degree Days 7    
Month to date heating degree days 33  
Since 1 July heating degree days 83  
Cooling Degree Days 0    
Month to date cooling degree days 13  
Year to date cooling degree days 113  
Growing Degree Days 8 (Base 50)    
Moisture  
Dew Point 54 °F    
Average Humidity 89    
Maximum Humidity 97    
Minimum Humidity 72    
Precipitation  
Precipitation 0.25 in 0.12 in 0.61 in (2011)
Month to date precipitation 1.72 1.99  
Year to date precipitation 22.55 20.05  
Sea Level Pressure  
Sea Level Pressure 29.84 in    
Wind  
Wind Speed 4 mph (SSW)    
Max Wind Speed 16 mph    
Max Gust Speed 21 mph    
Visibility 8 miles    
Events Rain    
T = Trace of Precipitation, MM = Missing Value Source: NWS Daily Summary

Daily Weather History Graph

Daily Weather History Graph

Search for Another Location

Airport or City:

Trip Planner

Search our weather history database for the weather conditions in past years. The results will help you decide how hot, cold, wet, or windy it might be!

Date:

Astronomy

Aug. 16, 2014 Rise Set
Actual Time 5:31 AM EDT 7:43 PM EDT
Civil Twilight 4:57 AM EDT 8:16 PM EDT
Nautical Twilight 4:15 AM EDT 8:57 PM EDT
Astronomical Twilight 3:28 AM EDT 9:44 PM EDT
Moon 10:53 PM EDT (8/16) 12:43 PM EDT (8/16)
Length of Visible Light 15h 18m
Length of Day
14h 12m
Waning Gibbous, 59% of the Moon is Illuminated
Aug 16
Waning Gibbous
Aug 17
Last Quarter
Aug 25
New
Sep 2
First Quarter
Sep 8
Full

Hourly Weather History & Observations

Time (EDT) Temp. Dew Point Humidity Pressure Visibility Wind Dir Wind Speed Gust Speed Precip Events Conditions
1:53 AM 55.0 °F 53.1 °F 93% 29.83 in 10.0 mi East 5.8 mph - N/A   Overcast
2:53 AM 55.0 °F 53.1 °F 93% 29.83 in 10.0 mi ESE 3.5 mph - N/A   Overcast
3:34 AM 53.1 °F 52.0 °F 96% 29.83 in 2.0 mi Calm Calm - N/A   Overcast
3:43 AM 54.0 °F 52.0 °F 93% 29.83 in 10.0 mi ESE 3.5 mph - N/A   Overcast
3:53 AM 54.0 °F 53.1 °F 97% 29.83 in 10.0 mi Calm Calm - N/A   Overcast
4:53 AM 55.0 °F 52.0 °F 89% 29.83 in 10.0 mi Calm Calm - N/A   Overcast
5:53 AM 54.0 °F 52.0 °F 93% 29.84 in 10.0 mi East 3.5 mph - N/A   Overcast
6:53 AM 54.0 °F 53.1 °F 97% 29.84 in 10.0 mi Calm Calm - N/A   Overcast
7:26 AM 55.0 °F 53.1 °F 93% 29.86 in 10.0 mi East 3.5 mph - N/A   Overcast
7:35 AM 55.0 °F 54.0 °F 96% 29.86 in 10.0 mi Calm Calm - N/A   Overcast
7:53 AM 55.0 °F 54.0 °F 96% 29.86 in 10.0 mi ESE 3.5 mph - N/A   Overcast
8:53 AM 57.0 °F 55.0 °F 93% 29.85 in 10.0 mi Calm Calm - N/A   Overcast
9:53 AM 57.9 °F 55.0 °F 90% 29.86 in 10.0 mi South 3.5 mph - N/A   Overcast
10:14 AM 57.9 °F 54.0 °F 87% 29.87 in 10.0 mi SW 5.8 mph - N/A   Overcast
10:40 AM 57.0 °F 54.0 °F 89% 29.87 in 10.0 mi West 8.1 mph - 0.01 in Rain Light Rain
10:53 AM 57.0 °F 54.0 °F 89% 29.86 in 10.0 mi West 6.9 mph - 0.01 in Rain Light Rain
11:53 AM 60.1 °F 54.0 °F 80% 29.85 in 10.0 mi Variable 4.6 mph - 0.00 in   Overcast
12:53 PM 63.0 °F 54.0 °F 72% 29.84 in 10.0 mi SSE 5.8 mph - N/A   Overcast
1:53 PM 62.1 °F 53.1 °F 72% 29.83 in 10.0 mi SSW 3.5 mph - 0.00 in Rain Light Rain
2:01 PM 59.0 °F 55.0 °F 87% 29.85 in 2.0 mi WSW 15.0 mph 20.7 mph 0.09 in Rain Heavy Rain
2:03 PM 57.9 °F 55.0 °F 90% 29.85 in 1.2 mi SW 10.4 mph 20.7 mph 0.15 in Rain Heavy Rain
2:11 PM 57.9 °F 55.9 °F 93% 29.85 in 1.5 mi SW 5.8 mph - 0.17 in Rain Light Rain
2:13 PM 57.9 °F 55.9 °F 93% 29.85 in 3.0 mi WSW 5.8 mph - 0.17 in Rain Light Rain
2:26 PM 60.1 °F 57.0 °F 90% 29.84 in 10.0 mi WSW 4.6 mph - 0.17 in   Overcast
2:53 PM 62.1 °F 57.0 °F 84% 29.83 in 10.0 mi SW 5.8 mph - 0.17 in   Overcast
3:45 PM 59.0 °F 55.9 °F 90% 29.84 in 3.0 mi SW 6.9 mph - 0.06 in Rain Rain
3:53 PM 60.1 °F 57.9 °F 93% 29.83 in 3.0 mi Variable 4.6 mph - 0.07 in Rain Rain
4:53 PM 62.1 °F 57.0 °F 84% 29.83 in 10.0 mi Variable 4.6 mph - 0.00 in   Overcast
5:53 PM 62.1 °F 55.0 °F 78% 29.83 in 10.0 mi WSW 6.9 mph - N/A   Clear
6:53 PM 60.1 °F 54.0 °F 80% 29.84 in 10.0 mi SW 5.8 mph - N/A   Overcast
7:43 PM 59.0 °F 54.0 °F 83% 29.85 in 10.0 mi SSW 5.8 mph - N/A   Overcast
7:53 PM 57.9 °F 54.0 °F 87% 29.85 in 10.0 mi SSW 6.9 mph - 0.00 in   Overcast
8:53 PM 57.0 °F 54.0 °F 89% 29.85 in 10.0 mi SW 3.5 mph - N/A   Overcast
9:53 PM 55.9 °F 54.0 °F 93% 29.85 in 10.0 mi SSW 6.9 mph - N/A   Overcast
10:53 PM 55.9 °F 54.0 °F 93% 29.84 in 10.0 mi SSW 6.9 mph - N/A   Overcast
11:43 PM 55.9 °F 54.0 °F 93% 29.84 in 10.0 mi SSW 8.1 mph - N/A   Overcast
11:53 PM 55.9 °F 54.0 °F 93% 29.84 in 10.0 mi SSW 5.8 mph - N/A   Overcast